Regional Weather Roundup
Issued by NWS

Home | Current Version | Previous Version | Text Only | Print | Product List | Glossary Off
Versions: 1 2 3 4 5 6 7 8 9 10 11 12 13 14 15 16 17 18 19 20 21 22 23 24 25 26 27 28 29 30 31 32 33 34 35 36 37 38 39 40 41 42 43 44 45 46 47 48 49 50

000
ASUS43 KIND 231209
RWRIN

WEATHER ROUNDUP FOR INDIANA
NATIONAL WEATHER SERVICE INDIANAPOLIS IN
800 AM EDT THU MAR 23 2017

NOTE: "FAIR" INDICATES FEW OR NO CLOUDS BELOW 12,000 FEET WITH NO
SIGNIFICANT WEATHER AND/OR OBSTRUCTIONS TO VISIBILITY.

* - STATION DOES NOT REPORT WEATHER SUCH AS PRECIPITATION OR FOG.

+ - STATION NOT QUALITY CONTROLLED BY THE NATIONAL WEATHER SERVICE.
    USE DATA WITH CAUTION...ESPECIALLY DEWPOINT AND RELATIVE
    HUMIDITY OBSERVATIONS.

INZ001>003-010>013-019-020-231300-
NORTHWEST INDIANA

CITY           SKY/WX    TMP DP  RH WIND       PRES   REMARKS
GARY /AIRPORT/ MOCLDY    32  18  55 SE12      30.44R WCI  23
KNOX *+        CLOUDY    28   1  31 SE6       30.45R WCI  22
LA PORTE +     CLOUDY    28  20  72 SE8       30.44S WCI  19
6HR MIN TEMP:  23; 6HR MAX TEMP:  28;

MICHIGAN CITY+ CLOUDY    30  19  64 SE7       30.45S WCI  23
MONTICELLO +   CLOUDY    29  19  65 E7        30.43R WCI  22
6HR MIN TEMP:  28; 6HR MAX TEMP:  30;

RENSSELAER +     N/A     30  21  69 E10       30.43S WCI  21
VALPARAISO     CLOUDY    29  20  69 SE10      30.44S WCI  20
6HR MIN TEMP:  25; 6HR MAX TEMP:  29;


$$

LMZ046-743>745-231300-
SOUTHERN LAKE MICHIGAN

STATION/POSITION TIME  TEMP    WIND        PRES    WAVE
                       AIR SEA DIR/SP/G            HT
                 (UTC) (F)     (DEG/KT/KT) (MB)    (FT)
BURNS HARBOR     1201   30     140/ 11/ 19 1031.2
MICHIGAN CITY    1140   29     120/ 11/ 15   N/A

$$

INZ004-005-014>016-021>024-231300-
NORTH CENTRAL INDIANA

CITY           SKY/WX    TMP DP  RH WIND       PRES   REMARKS
ELKHART        PTCLDY    27  16  63 E9        30.46F WCI  17
GOSHEN         PTCLDY    26  14  60 E8        30.46F WCI  18
6HR MIN TEMP:  24; 6HR MAX TEMP:  27;

LOGANSPORT +   MOCLDY    28  19  69 E13       30.43F WCI  18
PERU/GRISSOM   CLOUDY    28  19  67 E12       30.41F WCI  18
6HR MIN TEMP:  27; 6HR MAX TEMP:  29;

ROCHESTER +    PTCLDY    30  18  59 E9        30.45S WCI  22
SOUTH BEND     CLOUDY    26  16  65 SE10      30.46S WCI  16
6HR MIN TEMP:  25; 6HR MAX TEMP:  28;

WARSAW +       MOCLDY    27  16  63 E12       30.46F WCI  16

$$

INZ006>009-017-018-025>027-231300-
NORTHEAST INDIANA

CITY           SKY/WX    TMP DP  RH WIND       PRES   REMARKS
ANGOLA *+      CLEAR     21  12  68 SE7       30.49R WCI  13
AUBURN +       PTCLDY    25  18  74 E5        30.52R WCI  19
FORT WAYNE     MOCLDY    24  16  71 E8        30.49R WCI  15
6HR MIN TEMP:  23; 6HR MAX TEMP:  26;

HUNTINGTON +   CLOUDY    24  15  70 E6        30.47S WCI  17
6HR MIN TEMP:  24; 6HR MAX TEMP:  27;

KENDALLVILLE + CLOUDY    23  14  68 SE7       30.49R WCI  15

$$

INZ028-029-035-036-043>045-051>053-231300-
WEST CENTRAL INDIANA

CITY           SKY/WX    TMP DP  RH WIND       PRES   REMARKS
CRAWFORDSVL +  CLOUDY    27  21  79 E12       30.40F WCI  16
6HR MIN TEMP:  25; 6HR MAX TEMP:  27;

GREENCASTLE +  CLOUDY    28  21  74 E7        30.42R WCI  21
LAFAYETTE      CLOUDY    26  21  81 E7        30.42S WCI  18
6HR MIN TEMP:  25; 6HR MAX TEMP:  29;

TERRE HAUTE    CLOUDY    30  20  66 E8        30.40S WCI  22
6HR MIN TEMP:  30; 6HR MAX TEMP:  32;


$$

INZ030>032-037>040-046>048-054>057-064-065-231300-
CENTRAL INDIANA

CITY           SKY/WX    TMP DP  RH WIND       PRES   REMARKS
CP ATTERBURY + CLOUDY    28  23  80 E5        30.43R WCI  23
COLUMBUS       CLEAR     27  23  86 E6        30.43S WCI  20
FRANKFORT +    MOCLDY    29  24  79 SE12      30.42F WCI  20
6HR MIN TEMP:  29; 6HR MAX TEMP:  31;

GREENWOOD *+   CLOUDY    29  21  71 E8        30.43R WCI  21
INDIANAPOLIS   MOCLDY    28  19  69 E10       30.42R WCI  19
6HR MIN TEMP:  28; 6HR MAX TEMP:  31;

-EAGLE CREEK   CLEAR     29  18  63 E9        30.42R WCI  20
6HR MIN TEMP:  28; 6HR MAX TEMP:  30;

KOKOMO +       CLOUDY    27  21  78 E13       30.44S WCI  16
6HR MIN TEMP:  26; 6HR MAX TEMP:  29;

MARION +       CLOUDY    27  18  71 E10G16    30.45F WCI  17
MT COMFORT *+  CLOUDY    27  19  74 SE8       30.44R WCI  18
SHELBYVILLE    PTCLDY    29  19  66 E12       30.43S WCI  19
6HR MIN TEMP:  29; 6HR MAX TEMP:  30;

ZIONSVILLE +   CLOUDY    26  20  78 E6        30.43S WCI  19
6HR MIN TEMP:  26; 6HR MAX TEMP:  29;


$$

INZ033-034-041-042-049-050-058-059-231300-
EAST CENTRAL INDIANA

CITY           SKY/WX    TMP DP  RH WIND       PRES   REMARKS
MUNCIE         CLOUDY    27  19  72 E9        30.44S WCI  18
6HR MIN TEMP:  26; 6HR MAX TEMP:  29;

RICHMOND +     CLOUDY    25  19  80 E9        30.45R WCI  15

$$

INZ060-061-067>069-081>083-085>088-231300-
SOUTHWEST INDIANA

CITY           SKY/WX    TMP DP  RH WIND       PRES   REMARKS
EVANSVILLE     CLOUDY    36  22  56 E8        30.36S
6HR MIN TEMP:  32; 6HR MAX TEMP:  37;

HUNTINGBURG *+ CLOUDY    34  19  54 E8        30.38R WCI  27
6HR MIN TEMP:  33; 6HR MAX TEMP:  36;

WASHINGTON +   CLOUDY    32  20  60 MISG      30.39R
6HR MIN TEMP:  32; 6HR MAX TEMP:  33;


$$

INZ062-063-066-070>080-084-089>092-231300-
SOUTH CENTRAL AND SOUTHEAST INDIANA

CITY           SKY/WX    TMP DP  RH WIND       PRES   REMARKS
BEDFORD +      CLOUDY    30  18  59 E7        30.39R WCI  23
BLOOMINGTON    PTCLDY    30  18  60 SE9       30.39R WCI  22
6HR MIN TEMP:  29; 6HR MAX TEMP:  32;

MADISON *+     CLOUDY    32  18  55 E9G16     30.43S WCI  24
NORTH VERNON + CLOUDY    32  18  55 E8        30.42S WCI  25
SEYMOUR +      CLOUDY    32  19  59 E6        30.42R WCI  26

$$





USA.gov is the U.S. government's official web portal to all federal, state and local government web resources and services.